Akron, CO

2:54 AM MDT on August 27, 2016 (GMT -0600)
Akron-Washington County

Weather History for KAKO - July, 2014

Change the Weather History Date:

Friday, July 11, 2014

  Actual Average Record
Temperature  
Mean Temperature 77 °F 74 °F  
Max Temperature 91 °F 89 °F 105 °F (1939)
Min Temperature 63 °F 60 °F 49 °F (1951)
Degree Days  
Heating Degree Days 0    
Month to date heating degree days 0  
Cooling Degree Days 12    
Month to date cooling degree days 101  
Growing Degree Days 26 (Base 50)    
Moisture  
Dew Point 62 °F    
Average Humidity 64    
Maximum Humidity 93    
Minimum Humidity 34    
Precipitation  
Precipitation 0.08 in 0.08 in 1.87 in (1967)
Month to date precipitation 0.68 0.82  
Year to date precipitation 9.20 9.46  
Sea Level Pressure  
Sea Level Pressure 29.97 in    
Wind  
Wind Speed 12 mph (NNE)    
Max Wind Speed 36 mph    
Max Gust Speed 44 mph    
Visibility 10 miles    
Events Rain , Thunderstorm    
T = Trace of Precipitation, MM = Missing Value Source: NWS Daily Summary

Daily Weather History Graph

Daily Weather History Graph

Search for Another Location

Airport or City:

Trip Planner

Search our weather history database for the weather conditions in past years. The results will help you decide how hot, cold, wet, or windy it might be!

Date:

Astronomy

Jul. 11, 2014 Rise Set
Actual Time 5:33 AM MDT 8:23 PM MDT
Civil Twilight 5:00 AM MDT 8:55 PM MDT
Nautical Twilight 4:20 AM MDT 9:35 PM MDT
Astronomical Twilight 3:33 AM MDT 10:22 PM MDT
Moon 7:35 PM MDT (7/11) 4:47 AM MDT (7/11)
Length of Visible Light 15h 54m
Length of Day
14h 49m
Waxing Gibbous, 99% of the Moon is Illuminated
Jul 11
Waxing Gibbous
Jul 12
Full
Jul 18
Last Quarter
Jul 26
New
Aug 3
First Quarter

Hourly Weather History & Observations

Time (MDT) Temp. Heat Index Dew Point Humidity Pressure Visibility Wind Dir Wind Speed Gust Speed Precip Events Conditions
12:53 AM 72.0 °F - 60.1 °F 66% 29.80 in 10.0 mi North 13.8 mph - N/A   Clear
1:53 AM 68.0 °F - 62.1 °F 81% 29.80 in 10.0 mi NE 11.5 mph 19.6 mph 0.00 in   Clear
2:53 AM 66.0 °F - 61.0 °F 84% 29.81 in 10.0 mi ENE 16.1 mph - N/A   Partly Cloudy
3:48 AM 64.4 °F - 62.6 °F 94% 30.03 in 10.0 mi NNE 15.0 mph - N/A   Scattered Clouds
3:53 AM 64.9 °F - 62.1 °F 90% 29.83 in 10.0 mi NE 15.0 mph - N/A   Mostly Cloudy
4:53 AM 64.0 °F - 61.0 °F 90% 29.84 in 10.0 mi ENE 12.7 mph - N/A   Clear
5:44 AM 64.0 °F - 62.1 °F 93% 30.06 in 10.0 mi ENE 9.2 mph - N/A   Scattered Clouds
5:53 AM 64.0 °F - 62.1 °F 93% 29.86 in 10.0 mi NE 8.1 mph - N/A   Mostly Cloudy
6:05 AM 64.9 °F - 63.0 °F 93% 30.07 in 7.0 mi NE 8.1 mph - N/A   Overcast
6:53 AM 66.0 °F - 64.0 °F 93% 29.88 in 3.0 mi North 3.5 mph - N/A   Overcast
7:50 AM 66.2 °F - 62.6 °F 88% 30.09 in 6.0 mi NW 3.5 mph - N/A   Overcast
7:53 AM 66.0 °F - 63.0 °F 90% 29.90 in 7.0 mi WNW 4.6 mph - N/A   Overcast
8:53 AM 69.1 °F - 64.0 °F 84% 29.92 in 9.0 mi Variable 3.5 mph - N/A   Overcast
9:04 AM 69.1 °F - 63.0 °F 81% 30.10 in 9.0 mi WNW 4.6 mph - N/A   Mostly Cloudy
9:18 AM 71.1 °F - 64.0 °F 78% 30.10 in 10.0 mi NNW 4.6 mph - N/A   Scattered Clouds
9:53 AM 75.0 °F - 64.9 °F 71% 29.91 in 10.0 mi NW 6.9 mph - N/A   Clear
10:53 AM 79.0 °F - 64.0 °F 60% 29.91 in 10.0 mi NNW 13.8 mph 20.7 mph N/A   Clear
11:53 AM 82.9 °F 83.3 °F 61.0 °F 47% 29.90 in 10.0 mi NW 12.7 mph - N/A   Clear
12:53 PM 87.1 °F 85.9 °F 57.0 °F 36% 29.88 in 10.0 mi North 10.4 mph - N/A   Clear
1:53 PM 88.0 °F 86.9 °F 57.9 °F 36% 29.87 in 10.0 mi Variable 6.9 mph - N/A   Clear
2:53 PM 87.1 °F 86.5 °F 59.0 °F 39% 29.86 in 10.0 mi ESE 9.2 mph 19.6 mph N/A   Partly Cloudy
3:53 PM 89.1 °F 89.0 °F 61.0 °F 39% 29.85 in 10.0 mi East 11.5 mph 21.9 mph N/A   Clear
4:53 PM 89.1 °F 88.0 °F 57.9 °F 35% 29.83 in 10.0 mi SSE 12.7 mph - N/A   Clear
5:53 PM 88.0 °F 87.6 °F 60.1 °F 39% 29.86 in 10.0 mi South 10.4 mph - N/A   Clear
6:28 PM 68.0 °F - 60.1 °F 76% 30.09 in 10.0 mi NNW 27.6 mph 41.4 mph N/A Thunderstorm Partly Cloudy
6:53 PM 66.9 °F - 60.1 °F 79% 29.95 in 10.0 mi NNE 21.9 mph - N/A Thunderstorm Clear
7:26 PM 66.9 °F - 61.0 °F 81% 30.15 in 10.0 mi WNW 13.8 mph - 0.00 in Rain , Thunderstorm Light Thunderstorms and Rain
7:36 PM 66.0 °F - 62.1 °F 87% 30.15 in 10.0 mi NNW 12.7 mph - 0.00 in Rain , Thunderstorm Light Thunderstorms and Rain
7:53 PM 64.9 °F - 63.0 °F 93% 29.99 in 10.0 mi NNW 12.7 mph - 0.01 in Rain , Thunderstorm Light Thunderstorms and Rain
8:17 PM 66.0 °F - 62.1 °F 87% 30.13 in 10.0 mi North 12.7 mph - 0.00 in Rain , Thunderstorm Light Rain
8:49 PM 66.2 °F - 62.6 °F 88% 30.12 in 10.0 mi NNE 3.5 mph - 0.01 in Rain Light Rain
8:53 PM 66.0 °F - 62.1 °F 87% 29.96 in 10.0 mi North 5.8 mph - 0.01 in Rain Light Rain
9:30 PM 64.9 °F - 62.1 °F 90% 30.16 in 10.0 mi SE 23.0 mph 38.0 mph 0.03 in Rain , Thunderstorm Light Rain
9:44 PM 64.0 °F - 62.1 °F 93% 30.18 in 10.0 mi SE 24.2 mph 31.1 mph 0.04 in Rain Light Rain
9:53 PM 64.0 °F - 62.1 °F 93% 30.02 in 10.0 mi SE 23.0 mph 32.2 mph 0.04 in Rain Light Rain
10:01 PM 64.0 °F - 62.1 °F 93% 30.17 in 10.0 mi ESE 20.7 mph 29.9 mph 0.00 in Rain Light Rain
10:53 PM 64.0 °F - 61.0 °F 90% 29.99 in 10.0 mi ESE 6.9 mph - 0.01 in Rain Light Rain
11:53 PM 64.9 °F - 62.1 °F 90% 29.98 in 10.0 mi North - - 0.00 in Rain Light Rain